Location: Bonaustraße
(48.4603°N, 11.9280°E)
Time: 06:06:53
(UTC+01:00)

X-37B - Pass Details

Date: 30 January 2021
Orbit: 383 x 391 km, 45.0° (Epoch: 27 February)

Event Time Altitude Azimuth Distance (km) Brightness Sun altitude
Rises 18:25:12 0° 271° (W) 2,272 6.2 -12.9°
Reaches altitude 10° 18:27:34 10° 255° (WSW) 1,416 4.9 -13.3°
Maximum altitude 18:30:04 21° 203° (SSW) 927 2.9 -13.7°
Drops below altitude 10° 18:32:35 10° 151° (SSE) 1,415 3.2 -14.1°
Enters shadow 18:33:11 - 145° (SE) 1,621 3.5 -14.2°
